Weather History for KORE - December, 2014

Change the Weather History Date:

Monday, December 15, 2014

  Actual Average Record
Temperature  
Mean Temperature 32 °F -  
Max Temperature 39 °F 35 °F 57 °F (2008)
Min Temperature 24 °F 18 °F -9 °F (2005)
Degree Days  
Heating Degree Days 33    
Moisture  
Dew Point 26 °F    
Average Humidity 76    
Maximum Humidity 92    
Minimum Humidity 62    
Precipitation  
Precipitation 0.00 in - - ()
Sea Level Pressure  
Sea Level Pressure 30.05 in    
Wind  
Wind Speed 8 mph (North)    
Max Wind Speed 16 mph    
Max Gust Speed 25 mph    
Visibility 10 miles    
Events      
Averages and records for this station are not official NWS values.
T = Trace of Precipitation, MM = Missing Value Source: NWS Daily Summary

Daily Weather History Graph

Daily Weather History Graph

Search for Another Location

Airport or City:

Trip Planner

Search our weather history database for the weather conditions in past years. The results will help you decide how hot, cold, wet, or windy it might be!

Date:

Astronomy

Dec. 15, 2014 Rise Set
Actual Time 7:12 AM EST 4:16 PM EST
Civil Twilight 6:39 AM EST 4:48 PM EST
Nautical Twilight 6:04 AM EST 5:24 PM EST
Astronomical Twilight 5:30 AM EST 5:58 PM EST
Moon 12:20 AM EST (12/15) 12:22 PM EST (12/15)
Length of Visible Light 10h 08m
Length of Day
9h 04m
Last Quarter, 39% of the Moon is Illuminated
Dec 15
Last Quarter
Dec 21
New
Dec 28
First Quarter
Jan 4
Full
Jan 13
Last Quarter

Hourly Weather History & Observations

Time (EST) Temp. Windchill Dew Point Humidity Pressure Visibility Wind Dir Wind Speed Gust Speed Precip Events Conditions
12:52 AM 35.1 °F 30.1 °F 28.0 °F 76% 29.94 in 10.0 mi North 5.8 mph - N/A   Overcast
1:52 AM 35.1 °F 27.4 °F 28.0 °F 76% 29.95 in 10.0 mi NNW 10.4 mph - N/A   Overcast
2:52 AM 35.1 °F 27.4 °F 27.0 °F 72% 29.96 in 10.0 mi NNW 10.4 mph - N/A   Overcast
3:52 AM 34.0 °F 25.5 °F 27.0 °F 75% 29.97 in 10.0 mi North 11.5 mph - N/A   Overcast
4:52 AM 34.0 °F 23.8 °F 26.1 °F 73% 29.98 in 10.0 mi NNW 16.1 mph - N/A   Overcast
5:52 AM 34.0 °F 26.0 °F 26.1 °F 73% 30.00 in 10.0 mi NNW 10.4 mph - N/A   Overcast
6:52 AM 34.0 °F 26.0 °F 26.1 °F 73% 30.01 in 10.0 mi North 10.4 mph - N/A   Overcast
7:52 AM 33.1 °F 24.9 °F 26.1 °F 75% 30.03 in 10.0 mi NNW 10.4 mph 25.3 mph N/A   Overcast
8:52 AM 34.0 °F 26.6 °F 26.1 °F 73% 30.05 in 10.0 mi NNW 9.2 mph - N/A   Overcast
9:52 AM 35.1 °F 26.9 °F 26.1 °F 70% 30.06 in 10.0 mi North 11.5 mph - N/A   Overcast
10:52 AM 36.0 °F 28.0 °F 27.0 °F 70% 30.06 in 10.0 mi NNW 11.5 mph - N/A   Mostly Cloudy
11:36 AM 37.0 °F 28.9 °F 27.0 °F 67% 30.03 in 10.0 mi North 12.7 mph - N/A   Partly Cloudy
11:52 AM 37.0 °F 29.3 °F 27.0 °F 67% 30.05 in 10.0 mi North 11.5 mph - N/A   Partly Cloudy
12:26 PM 37.9 °F 30.9 °F 27.0 °F 65% 30.02 in 10.0 mi North 10.4 mph - N/A   Mostly Cloudy
12:33 PM 37.9 °F 32.7 °F 27.0 °F 65% 30.02 in 10.0 mi North 6.9 mph - N/A   Scattered Clouds
12:52 PM 37.9 °F 33.5 °F 27.0 °F 65% 30.04 in 10.0 mi North 5.8 mph - N/A   Partly Cloudy
1:52 PM 39.0 °F 34.0 °F 27.0 °F 62% 30.04 in 10.0 mi North 6.9 mph - N/A   Clear
2:52 PM 37.9 °F 32.7 °F 27.0 °F 65% 30.05 in 10.0 mi NE 6.9 mph - N/A   Clear
3:52 PM 36.0 °F 30.3 °F 27.0 °F 70% 30.08 in 10.0 mi North 6.9 mph - N/A   Clear
4:52 PM 32.0 °F 27.5 °F 26.1 °F 79% 30.10 in 10.0 mi North 4.6 mph - N/A   Clear
5:52 PM 30.0 °F - 26.1 °F 85% 30.12 in 10.0 mi Calm Calm - N/A   Clear
6:52 PM 27.0 °F - 25.0 °F 92% 30.14 in 10.0 mi Calm Calm - N/A   Clear
7:52 PM 27.0 °F - 25.0 °F 92% 30.14 in 10.0 mi Calm Calm - N/A   Clear
8:52 PM 25.0 °F 18.1 °F 23.0 °F 92% 30.14 in 9.0 mi NW 5.8 mph - N/A   Clear
9:52 PM 25.0 °F - 23.0 °F 92% 30.15 in 8.0 mi Calm Calm - N/A   Clear
10:52 PM 25.0 °F - 21.9 °F 88% 30.16 in 7.0 mi Calm Calm - N/A   Clear
11:52 PM 24.1 °F - 21.9 °F 91% 30.16 in 7.0 mi Calm Calm - N/A   Clear